Time,TemperatureF,DewpointF,PressureIn,WindDirection,WindDirectionDegrees,WindSpeedMPH,WindSpeedGustMPH,Humidity,HourlyPrecipIn,Conditions,Clouds,dailyrainin,SolarRadiationWatts/m^2,SoftwareType,DateUTC
2013-06-21 00:01:00,59.2,33.6,29.88,NNW,327,8.0,14.0,38,0.00,,CLR,0.00,0.00,VWS V14.01,2013-06-21 07:01:00,
2013-06-21 00:06:00,58.9,33.4,29.88,NNE,22,7.0,18.0,38,0.00,,CLR,0.00,0.00,VWS V14.01,2013-06-21 07:06:00,
2013-06-21 00:11:00,58.5,34.3,29.88,North,360,12.0,16.0,40,0.00,,CLR,0.00,0.00,VWS V14.01,2013-06-21 07:11:00,
2013-06-21 00:16:00,58.2,34.0,29.88,NNE,28,7.0,14.0,40,0.00,,CLR,0.00,0.00,VWS V14.01,2013-06-21 07:16:00,
2013-06-21 00:21:00,57.8,34.3,29.89,North,5,14.0,15.0,41,0.00,,CLR,0.00,0.00,VWS V14.01,2013-06-21 07:21:00,
2013-06-21 00:26:00,57.4,33.9,29.89,NNE,14,17.0,19.0,41,0.00,,CLR,0.00,0.00,VWS V14.01,2013-06-21 07:26:00,
2013-06-21 00:31:00,57.2,34.3,29.90,ENE,63,12.0,16.0,42,0.00,,CLR,0.00,0.00,VWS V14.01,2013-06-21 07:31:00,
2013-06-21 00:36:00,56.8,34.6,29.90,North,5,8.0,14.0,43,0.00,,CLR,0.00,0.00,VWS V14.01,2013-06-21 07:36:00,
2013-06-21 00:41:00,56.4,34.2,29.90,NNE,24,9.0,14.0,43,0.00,,CLR,0.00,0.00,VWS V14.01,2013-06-21 07:41:00,
2013-06-21 00:46:00,56.3,34.7,29.90,NNW,340,4.0,13.0,44,0.00,,CLR,0.00,0.00,VWS V14.01,2013-06-21 07:46:00,
2013-06-21 00:51:00,56.2,34.6,29.90,NE,34,9.0,11.0,44,0.00,,CLR,0.00,0.00,VWS V14.01,2013-06-21 07:51:00,
2013-06-21 00:56:00,56.0,35.0,29.91,NNE,28,11.0,11.0,45,0.00,,CLR,0.00,0.00,VWS V14.01,2013-06-21 07:56:00,
2013-06-21 01:01:00,55.7,34.7,29.91,NE,37,8.0,13.0,45,0.00,,CLR,0.00,0.00,VWS V14.01,2013-06-21 08:01:00,
2013-06-21 01:06:00,55.4,34.4,29.91,NNE,33,8.0,13.0,45,0.00,,CLR,0.00,0.00,VWS V14.01,2013-06-21 08:06:00,
2013-06-21 01:11:00,55.2,34.2,29.91,NNE,20,12.0,12.0,45,0.00,,CLR,0.00,0.00,VWS V14.01,2013-06-21 08:11:00,
2013-06-21 01:16:00,55.0,34.6,29.91,NNE,30,5.0,10.0,46,0.00,,CLR,0.00,0.00,VWS V14.01,2013-06-21 08:16:00,
2013-06-21 01:21:00,54.6,34.2,29.91,North,9,8.0,10.0,46,0.00,,CLR,0.00,0.00,VWS V14.01,2013-06-21 08:21:00,
2013-06-21 01:26:00,54.4,34.6,29.91,NNE,19,6.0,9.0,47,0.00,,CLR,0.00,0.00,VWS V14.01,2013-06-21 08:26:00,
2013-06-21 01:31:00,54.2,34.4,29.91,NNE,17,3.0,6.0,47,0.00,,CLR,0.00,0.00,VWS V14.01,2013-06-21 08:31:00,
2013-06-21 01:36:00,54.0,34.2,29.91,NNE,24,6.0,7.0,47,0.00,,CLR,0.00,0.00,VWS V14.01,2013-06-21 08:36:00,
2013-06-21 01:41:00,53.9,34.2,29.91,NE,35,4.0,6.0,47,0.00,,CLR,0.00,0.00,VWS V14.01,2013-06-21 08:41:00,
2013-06-21 01:46:00,53.6,33.9,29.91,NE,36,2.0,3.0,47,0.00,,CLR,0.00,0.00,VWS V14.01,2013-06-21 08:46:00,
2013-06-21 01:51:00,53.5,33.8,29.91,NE,38,4.0,5.0,47,0.00,,CLR,0.00,0.00,VWS V14.01,2013-06-21 08:51:00,
2013-06-21 01:56:00,53.4,33.7,29.91,NNE,30,2.0,6.0,47,0.00,,CLR,0.00,0.00,VWS V14.01,2013-06-21 08:56:00,
2013-06-21 02:01:00,53.2,34.0,29.91,NE,38,3.0,3.0,48,0.00,,CLR,0.00,0.00,VWS V14.01,2013-06-21 09:01:00,
2013-06-21 02:06:00,53.0,33.8,29.91,NNE,13,2.0,4.0,48,0.00,,CLR,0.00,0.00,VWS V14.01,2013-06-21 09:06:00,
2013-06-21 02:11:00,52.6,34.0,29.91,NNE,17,0.0,3.0,49,0.00,,CLR,0.00,0.00,VWS V14.01,2013-06-21 09:11:00,
2013-06-21 02:16:00,52.3,33.7,29.91,North,10,0.0,3.0,49,0.00,,CLR,0.00,0.00,VWS V14.01,2013-06-21 09:16:00,
2013-06-21 02:21:00,52.2,33.6,29.91,NNE,27,1.0,3.0,49,0.00,,CLR,0.00,0.00,VWS V14.01,2013-06-21 09:21:00,
2013-06-21 02:26:00,52.2,33.6,29.91,NE,36,4.0,4.0,49,0.00,,CLR,0.00,0.00,VWS V14.01,2013-06-21 09:26:00,
2013-06-21 02:31:00,52.1,34.0,29.91,NNE,16,2.0,4.0,50,0.00,,CLR,0.00,0.00,VWS V14.01,2013-06-21 09:31:00,
2013-06-21 02:36:00,52.0,34.0,29.91,NE,34,5.0,5.0,50,0.00,,CLR,0.00,0.00,VWS V14.01,2013-06-21 09:36:00,
2013-06-21 02:41:00,52.0,34.0,29.91,NE,35,0.0,3.0,50,0.00,,CLR,0.00,0.00,VWS V14.01,2013-06-21 09:41:00,
2013-06-21 02:46:00,51.8,33.8,29.91,NNE,24,0.0,1.0,50,0.00,,CLR,0.00,0.00,VWS V14.01,2013-06-21 09:46:00,
2013-06-21 02:51:00,51.6,33.6,29.91,NNE,19,2.0,2.0,50,0.00,,CLR,0.00,0.00,VWS V14.01,2013-06-21 09:51:00,
2013-06-21 02:56:00,51.6,33.6,29.91,North,5,1.0,4.0,50,0.00,,CLR,0.00,0.00,VWS V14.01,2013-06-21 09:56:00,
2013-06-21 03:01:00,51.6,34.1,29.91,NNE,13,2.0,5.0,51,0.00,,CLR,0.00,0.00,VWS V14.01,2013-06-21 10:01:00,
2013-06-21 03:06:00,51.5,34.0,29.91,NE,44,2.0,3.0,51,0.00,,CLR,0.00,0.00,VWS V14.01,2013-06-21 10:06:00,
2013-06-21 03:11:00,51.1,33.6,29.91,NNE,23,5.0,5.0,51,0.00,,CLR,0.00,0.00,VWS V14.01,2013-06-21 10:11:00,
2013-06-21 03:16:00,50.8,33.3,29.91,NE,43,4.0,7.0,51,0.00,,CLR,0.00,0.00,VWS V14.01,2013-06-21 10:16:00,
2013-06-21 03:21:00,50.6,33.2,29.91,NNE,30,1.0,5.0,51,0.00,,CLR,0.00,0.00,VWS V14.01,2013-06-21 10:21:00,
2013-06-21 03:26:00,50.4,33.5,29.91,North,5,1.0,4.0,52,0.00,,CLR,0.00,0.00,VWS V14.01,2013-06-21 10:26:00,
2013-06-21 03:31:00,50.1,33.7,29.91,NNE,12,0.0,3.0,53,0.00,,CLR,0.00,0.00,VWS V14.01,2013-06-21 10:31:00,
2013-06-21 03:36:00,49.9,33.5,29.91,NNE,27,0.0,2.0,53,0.00,,CLR,0.00,0.00,VWS V14.01,2013-06-21 10:36:00,
2013-06-21 03:41:00,49.8,33.4,29.91,ENE,57,1.0,2.0,53,0.00,,CLR,0.00,0.00,VWS V14.01,2013-06-21 10:41:00,
2013-06-21 03:46:00,49.6,33.2,29.91,NE,53,0.0,2.0,53,0.00,,CLR,0.00,0.00,VWS V14.01,2013-06-21 10:46:00,
2013-06-21 03:51:00,49.5,33.1,29.91,NNE,18,3.0,4.0,53,0.00,,CLR,0.00,0.00,VWS V14.01,2013-06-21 10:51:00,
2013-06-21 03:56:00,49.7,33.3,29.91,North,355,1.0,3.0,53,0.00,,CLR,0.00,0.00,VWS V14.01,2013-06-21 10:56:00,
2013-06-21 04:01:00,49.6,33.2,29.91,NNE,30,1.0,4.0,53,0.00,,CLR,0.00,0.00,VWS V14.01,2013-06-21 11:01:00,
2013-06-21 04:06:00,49.3,32.9,29.91,NNE,30,1.0,1.0,53,0.00,,CLR,0.00,0.00,VWS V14.01,2013-06-21 11:06:00,
2013-06-21 04:11:00,49.0,33.1,29.91,NNE,24,1.0,2.0,54,0.00,,CLR,0.00,0.00,VWS V14.01,2013-06-21 11:11:00,
2013-06-21 04:17:00,48.8,33.4,29.91,NNE,15,0.0,0.0,55,0.00,,CLR,0.00,0.00,VWS V14.01,2013-06-21 11:17:00,
2013-06-21 04:22:00,48.7,33.3,29.91,NNE,15,0.0,1.0,55,0.00,,CLR,0.00,0.00,VWS V14.01,2013-06-21 11:22:00,
2013-06-21 04:27:00,48.4,33.0,29.91,NNE,15,0.0,0.0,55,0.00,,CLR,0.00,0.00,VWS V14.01,2013-06-21 11:27:00,
2013-06-21 04:32:00,48.2,32.8,29.91,NNE,15,0.0,0.0,55,0.00,,CLR,0.00,0.00,VWS V14.01,2013-06-21 11:32:00,
2013-06-21 04:37:00,48.1,33.2,29.91,NNE,15,0.0,0.0,56,0.00,,CLR,0.00,0.00,VWS V14.01,2013-06-21 11:37:00,
2013-06-21 04:42:00,48.0,33.1,29.91,NNE,15,0.0,1.0,56,0.00,,CLR,0.00,0.00,VWS V14.01,2013-06-21 11:42:00,
2013-06-21 04:47:00,47.8,32.9,29.91,NNW,340,0.0,1.0,56,0.00,,CLR,0.00,0.00,VWS V14.01,2013-06-21 11:47:00,
2013-06-21 04:52:00,47.7,32.8,29.92,NNW,340,0.0,1.0,56,0.00,,CLR,0.00,0.00,VWS V14.01,2013-06-21 11:52:00,
2013-06-21 04:57:00,47.6,32.7,29.92,NNW,340,0.0,0.0,56,0.00,,CLR,0.00,0.00,VWS V14.01,2013-06-21 11:57:00,
2013-06-21 05:02:00,47.3,32.0,29.92,NNW,340,0.0,0.0,55,0.00,,CLR,0.00,0.00,VWS V14.01,2013-06-21 12:02:00,
2013-06-21 05:07:00,47.2,32.3,29.92,NNW,340,0.0,0.0,56,0.00,,CLR,0.00,0.00,VWS V14.01,2013-06-21 12:07:00,
2013-06-21 05:12:00,46.8,32.8,29.92,NNW,340,1.0,2.0,58,0.00,,CLR,0.00,0.00,VWS V14.01,2013-06-21 12:12:00,
2013-06-21 05:17:00,46.5,33.0,29.92,NNW,339,0.0,1.0,59,0.00,,CLR,0.00,0.00,VWS V14.01,2013-06-21 12:17:00,
2013-06-21 05:22:00,46.4,32.9,29.92,NNW,339,0.0,0.0,59,0.00,,CLR,0.00,0.00,VWS V14.01,2013-06-21 12:22:00,
2013-06-21 05:27:00,46.2,32.7,29.92,NNW,339,1.0,2.0,59,0.00,,CLR,0.00,0.00,VWS V14.01,2013-06-21 12:27:00,
2013-06-21 05:32:00,46.0,32.5,29.92,NNW,338,0.0,0.0,59,0.00,,CLR,0.00,5.00,VWS V14.01,2013-06-21 12:32:00,
2013-06-21 05:37:00,45.9,32.8,29.92,NW,304,0.0,2.0,60,0.00,,CLR,0.00,7.00,VWS V14.01,2013-06-21 12:37:00,
2013-06-21 05:42:00,45.8,32.7,29.92,WNW,303,0.0,1.0,60,0.00,,CLR,0.00,9.00,VWS V14.01,2013-06-21 12:42:00,
2013-06-21 05:47:00,45.8,33.1,29.92,WNW,303,0.0,1.0,61,0.00,,CLR,0.00,11.00,VWS V14.01,2013-06-21 12:47:00,
2013-06-21 05:52:00,45.7,33.0,29.92,WNW,303,0.0,1.0,61,0.00,,CLR,0.00,12.00,VWS V14.01,2013-06-21 12:52:00,
2013-06-21 05:57:00,45.6,32.9,29.92,WNW,303,1.0,1.0,61,0.00,,CLR,0.00,21.00,VWS V14.01,2013-06-21 12:57:00,
2013-06-21 06:02:00,45.7,33.0,29.92,WNW,303,1.0,1.0,61,0.00,,CLR,0.00,30.00,VWS V14.01,2013-06-21 13:02:00,
2013-06-21 06:07:00,45.9,33.2,29.92,WNW,303,0.0,1.0,61,0.00,,CLR,0.00,40.00,VWS V14.01,2013-06-21 13:07:00,
2013-06-21 06:12:00,46.2,33.5,29.92,WNW,303,0.0,2.0,61,0.00,,CLR,0.00,42.00,VWS V14.01,2013-06-21 13:12:00,
2013-06-21 06:17:00,46.6,33.5,29.92,WNW,287,3.0,4.0,60,0.00,,CLR,0.00,63.00,VWS V14.01,2013-06-21 13:17:00,
2013-06-21 06:22:00,47.2,34.0,29.92,West,279,0.0,3.0,60,0.00,,CLR,0.00,77.00,VWS V14.01,2013-06-21 13:22:00,
2013-06-21 06:27:00,47.9,34.3,29.92,West,277,1.0,4.0,59,0.00,,CLR,0.00,88.00,VWS V14.01,2013-06-21 13:27:00,
2013-06-21 06:32:00,48.6,34.9,29.92,West,275,0.0,3.0,59,0.00,,FEW220,0.00,104.00,VWS V14.01,2013-06-21 13:32:00,
2013-06-21 06:37:00,49.2,35.1,29.92,West,276,0.0,3.0,58,0.00,,FEW220,0.00,120.00,VWS V14.01,2013-06-21 13:37:00,
2013-06-21 06:42:00,49.8,35.2,29.92,West,281,2.0,4.0,57,0.00,,FEW220,0.00,135.00,VWS V14.01,2013-06-21 13:42:00,
2013-06-21 06:47:00,50.3,35.2,29.92,West,278,0.0,5.0,56,0.00,,FEW220,0.00,153.00,VWS V14.01,2013-06-21 13:47:00,
2013-06-21 06:52:00,51.0,35.4,29.92,NW,306,6.0,6.0,55,0.00,,FEW220,0.00,169.00,VWS V14.01,2013-06-21 13:52:00,
2013-06-21 06:57:00,51.7,35.1,29.93,WNW,301,2.0,6.0,53,0.00,,FEW220,0.00,186.00,VWS V14.01,2013-06-21 13:57:00,
2013-06-21 07:02:00,52.5,34.9,29.93,West,264,2.0,6.0,51,0.00,,FEW220,0.00,199.00,VWS V14.01,2013-06-21 14:02:00,
2013-06-21 07:07:00,53.1,35.5,29.93,West,273,0.0,3.0,51,0.00,,FEW220,0.00,213.00,VWS V14.01,2013-06-21 14:07:00,
2013-06-21 07:12:00,54.0,35.8,29.93,West,276,0.0,3.0,50,0.00,,FEW220,0.00,227.00,VWS V14.01,2013-06-21 14:12:00,
2013-06-21 07:17:00,54.7,35.4,29.93,WNW,282,1.0,3.0,48,0.00,,FEW220,0.00,243.00,VWS V14.01,2013-06-21 14:17:00,
2013-06-21 07:22:00,55.3,35.4,29.93,WNW,282,0.0,2.0,47,0.00,,FEW220,0.00,257.00,VWS V14.01,2013-06-21 14:22:00,
2013-06-21 07:27:00,55.9,35.4,29.93,West,261,2.0,3.0,46,0.00,,FEW220,0.00,272.00,VWS V14.01,2013-06-21 14:27:00,
2013-06-21 07:32:00,56.6,35.5,29.93,West,261,1.0,1.0,45,0.00,,FEW220,0.00,288.00,VWS V14.01,2013-06-21 14:32:00,
2013-06-21 07:37:00,57.2,35.5,29.93,West,263,1.0,3.0,44,0.00,,FEW220,0.00,301.00,VWS V14.01,2013-06-21 14:37:00,
2013-06-21 07:42:00,57.7,35.4,29.93,WNW,287,0.0,3.0,43,0.00,,FEW220,0.00,316.00,VWS V14.01,2013-06-21 14:42:00,
2013-06-21 07:47:00,58.1,35.2,29.93,NW,321,1.0,3.0,42,0.00,,FEW220,0.00,330.00,VWS V14.01,2013-06-21 14:47:00,
2013-06-21 07:52:00,58.4,34.8,29.93,WNW,283,1.0,4.0,41,0.00,,FEW220,0.00,346.00,VWS V14.01,2013-06-21 14:52:00,
2013-06-21 07:57:00,59.0,34.7,29.93,WNW,283,1.0,2.0,40,0.00,,FEW220,0.00,362.00,VWS V14.01,2013-06-21 14:57:00,
2013-06-21 08:02:00,59.5,34.5,29.93,NNW,337,3.0,4.0,39,0.00,,SCT220,0.00,378.00,VWS V14.01,2013-06-21 15:02:00,
2013-06-21 08:07:00,59.8,34.2,29.92,NNW,340,1.0,4.0,38,0.00,,SCT220,0.00,394.00,VWS V14.01,2013-06-21 15:07:00,
2013-06-21 08:12:00,60.2,34.5,29.92,West,261,0.0,2.0,38,0.00,,SCT220,0.00,406.00,VWS V14.01,2013-06-21 15:12:00,
2013-06-21 08:17:00,60.5,34.8,29.92,WSW,250,0.0,4.0,38,0.00,,SCT220,0.00,424.00,VWS V14.01,2013-06-21 15:17:00,
2013-06-21 08:22:00,61.1,34.0,29.92,WSW,252,3.0,5.0,36,0.00,,SCT220,0.00,438.00,VWS V14.01,2013-06-21 15:22:00,
2013-06-21 08:27:00,61.6,33.7,29.92,WSW,250,1.0,4.0,35,0.00,,SCT220,0.00,454.00,VWS V14.01,2013-06-21 15:27:00,
2013-06-21 08:32:00,62.1,34.2,29.92,WSW,250,1.0,1.0,35,0.00,,SCT220,0.00,469.00,VWS V14.01,2013-06-21 15:32:00,
2013-06-21 08:37:00,62.3,33.6,29.92,WSW,252,0.0,1.0,34,0.00,,SCT220,0.00,482.00,VWS V14.01,2013-06-21 15:37:00,
2013-06-21 08:42:00,62.9,33.4,29.92,West,259,3.0,4.0,33,0.00,,SCT220,0.00,497.00,VWS V14.01,2013-06-21 15:42:00,
2013-06-21 08:47:00,63.5,33.1,29.92,WNW,282,4.0,4.0,32,0.00,,SCT220,0.00,515.00,VWS V14.01,2013-06-21 15:47:00,
2013-06-21 08:52:00,63.5,33.1,29.92,WNW,284,0.0,1.0,32,0.00,,SCT220,0.00,529.00,VWS V14.01,2013-06-21 15:52:00,
2013-06-21 08:57:00,63.7,33.3,29.92,SW,221,3.0,3.0,32,0.00,,SCT220,0.00,545.00,VWS V14.01,2013-06-21 15:57:00,
2013-06-21 09:02:00,63.6,33.2,29.91,SW,217,0.0,3.0,32,0.00,,SCT220,0.00,557.00,VWS V14.01,2013-06-21 16:02:00,
2013-06-21 09:07:00,64.3,33.0,29.91,NNW,348,2.0,4.0,31,0.00,,SCT220,0.00,570.00,VWS V14.01,2013-06-21 16:07:00,
2013-06-21 09:13:00,64.4,33.1,29.91,North,5,0.0,2.0,31,0.00,,SCT220,0.00,589.00,VWS V14.01,2013-06-21 16:13:00,
2013-06-21 09:18:00,64.8,32.7,29.91,NW,312,2.0,3.0,30,0.00,,SCT220,0.00,601.00,VWS V14.01,2013-06-21 16:18:00,
2013-06-21 09:23:00,65.0,32.8,29.91,NE,42,0.0,3.0,30,0.00,,SCT220,0.00,612.00,VWS V14.01,2013-06-21 16:23:00,
2013-06-21 09:28:00,65.6,32.5,29.91,East,87,0.0,2.0,29,0.00,,SCT220,0.00,626.00,VWS V14.01,2013-06-21 16:28:00,
2013-06-21 09:33:00,65.4,32.3,29.91,SSE,160,0.0,5.0,29,0.00,,SCT220,0.00,638.00,VWS V14.01,2013-06-21 16:33:00,
2013-06-21 09:38:00,65.7,32.6,29.91,SW,214,0.0,4.0,29,0.00,,SCT220,0.00,654.00,VWS V14.01,2013-06-21 16:38:00,
2013-06-21 09:43:00,65.4,32.3,29.90,SSE,167,2.0,5.0,29,0.00,,SCT220,0.00,664.00,VWS V14.01,2013-06-21 16:43:00,
2013-06-21 09:48:00,65.6,32.5,29.91,SE,140,2.0,2.0,29,0.00,,SCT220,0.00,679.00,VWS V14.01,2013-06-21 16:48:00,
2013-06-21 09:53:00,66.4,32.3,29.90,SE,138,0.0,3.0,28,0.00,,SCT220,0.00,691.00,VWS V14.01,2013-06-21 16:53:00,
2013-06-21 09:58:00,67.5,32.4,29.90,East,94,0.0,3.0,27,0.00,,SCT220,0.00,701.00,VWS V14.01,2013-06-21 16:58:00,
2013-06-21 10:03:00,67.9,32.7,29.90,South,172,3.0,4.0,27,0.00,,SCT220,0.00,717.00,VWS V14.01,2013-06-21 17:03:00,
2013-06-21 10:08:00,67.2,29.2,29.90,NNE,22,5.0,7.0,24,0.00,,SCT220,0.00,729.00,VWS V14.01,2013-06-21 17:08:00,
2013-06-21 10:13:00,66.3,30.4,29.90,NE,39,0.0,4.0,26,0.00,,SCT220,0.00,735.00,VWS V14.01,2013-06-21 17:13:00,
2013-06-21 10:18:00,67.0,31.0,29.90,NNE,30,5.0,7.0,26,0.00,,SCT220,0.00,747.00,VWS V14.01,2013-06-21 17:18:00,
2013-06-21 10:23:00,67.0,31.0,29.90,NW,326,3.0,6.0,26,0.00,,SCT220,0.00,758.00,VWS V14.01,2013-06-21 17:23:00,
2013-06-21 10:28:00,66.7,29.8,29.90,NE,55,0.0,7.0,25,0.00,,SCT220,0.00,770.00,VWS V14.01,2013-06-21 17:28:00,
2013-06-21 10:33:00,67.2,31.2,29.90,ENE,70,4.0,8.0,26,0.00,,SCT220,0.00,780.00,VWS V14.01,2013-06-21 17:33:00,
2013-06-21 10:38:00,67.2,31.2,29.90,ENE,78,0.0,5.0,26,0.00,,SCT220,0.00,789.00,VWS V14.01,2013-06-21 17:38:00,
2013-06-21 10:43:00,67.9,31.8,29.90,SE,132,1.0,5.0,26,0.00,,SCT220,0.00,798.00,VWS V14.01,2013-06-21 17:43:00,
2013-06-21 10:46:00,68.2,32.0,29.90,ESE,121,2.0,3.0,26,0.00,,SCT220,0.00,802.00,VWS V14.01,2013-06-21 17:46:00,
2013-06-21 10:51:00,69.0,31.8,29.90,NW,309,0.0,3.0,25,0.00,,SCT220,0.00,816.00,VWS V14.01,2013-06-21 17:51:00,
2013-06-21 10:56:00,70.3,32.8,29.90,East,82,0.0,4.0,25,0.00,,SCT220,0.00,823.00,VWS V14.01,2013-06-21 17:56:00,
2013-06-21 11:01:00,70.6,32.1,29.90,ESE,117,2.0,3.0,24,0.00,,SCT220,0.00,831.00,VWS V14.01,2013-06-21 18:01:00,
2013-06-21 11:06:00,70.4,30.9,29.90,NE,38,0.0,5.0,23,0.00,,SCT220,0.00,842.00,VWS V14.01,2013-06-21 18:06:00,
2013-06-21 11:12:00,70.3,30.8,29.89,South,171,3.0,6.0,23,0.00,,SCT220,0.00,851.00,VWS V14.01,2013-06-21 18:12:00,
2013-06-21 11:17:00,70.1,31.7,29.89,ENE,67,2.0,3.0,24,0.00,,SCT220,0.00,860.00,VWS V14.01,2013-06-21 18:17:00,
2013-06-21 11:22:00,69.8,31.4,29.89,SSE,161,1.0,7.0,24,0.00,,SCT220,0.00,867.00,VWS V14.01,2013-06-21 18:22:00,
2013-06-21 11:23:00,69.8,31.4,29.89,SSE,148,0.0,7.0,24,0.00,,SCT220,0.00,870.00,VWS V14.01,2013-06-21 18:23:00,
2013-06-21 11:24:00,70.2,32.8,29.89,SE,146,0.0,7.0,25,0.00,,SCT220,0.00,872.00,VWS V14.01,2013-06-21 18:24:00,
2013-06-21 11:29:00,70.9,31.3,29.89,NW,306,3.0,6.0,23,0.00,,SCT220,0.00,881.00,VWS V14.01,2013-06-21 18:29:00,
2013-06-21 11:34:00,70.6,29.9,29.89,North,350,0.0,9.0,22,0.00,,SCT220,0.00,881.00,VWS V14.01,2013-06-21 18:34:00,
2013-06-21 11:39:00,70.9,31.3,29.89,ESE,116,2.0,5.0,23,0.00,,SCT220,0.00,889.00,VWS V14.01,2013-06-21 18:39:00,
2013-06-21 11:44:00,70.9,30.2,29.89,NNW,343,5.0,7.0,22,0.00,,SCT220,0.00,893.00,VWS V14.01,2013-06-21 18:44:00,
2013-06-21 11:45:00,70.8,31.2,29.89,NNE,31,5.0,5.0,23,0.00,,SCT220,0.00,895.00,VWS V14.01,2013-06-21 18:45:00,
2013-06-21 11:46:00,70.7,31.1,29.89,NE,40,6.0,6.0,23,0.00,,SCT220,0.00,895.00,VWS V14.01,2013-06-21 18:46:00,
2013-06-21 11:51:00,70.5,29.9,29.89,NNW,329,3.0,6.0,22,0.00,,SCT220,0.00,907.00,VWS V14.01,2013-06-21 18:51:00,
2013-06-21 11:56:00,70.0,30.5,29.89,WNW,289,3.0,4.0,23,0.00,,SCT220,0.00,909.00,VWS V14.01,2013-06-21 18:56:00,
2013-06-21 12:01:00,71.1,30.4,29.88,ENE,67,0.0,3.0,22,0.00,,SCT220,0.00,912.00,VWS V14.01,2013-06-21 19:01:00,
2013-06-21 12:06:00,72.3,30.2,29.88,ESE,103,1.0,3.0,21,0.00,,SCT220,0.00,919.00,VWS V14.01,2013-06-21 19:06:00,
2013-06-21 12:11:00,72.5,30.4,29.88,ENE,68,0.0,3.0,21,0.00,,SCT220,0.00,923.00,VWS V14.01,2013-06-21 19:11:00,
2013-06-21 12:16:00,72.2,28.9,29.88,NNE,26,1.0,5.0,20,0.00,,SCT220,0.00,925.00,VWS V14.01,2013-06-21 19:16:00,
2013-06-21 12:20:00,71.5,29.5,29.88,North,355,6.0,7.0,21,0.00,,SCT220,0.00,932.00,VWS V14.01,2013-06-21 19:20:00,
2013-06-21 12:25:00,71.7,29.7,29.88,SW,234,4.0,5.0,21,0.00,,SCT220,0.00,928.00,VWS V14.01,2013-06-21 19:25:00,
2013-06-21 12:30:00,72.1,30.0,29.88,WSW,251,2.0,2.0,21,0.00,,SCT220,0.00,926.00,VWS V14.01,2013-06-21 19:30:00,
2013-06-21 12:35:00,73.4,31.1,29.88,WSW,245,3.0,3.0,21,0.00,,SCT220,0.00,933.00,VWS V14.01,2013-06-21 19:35:00,
2013-06-21 12:40:00,73.2,31.0,29.88,SSE,166,3.0,3.0,21,0.00,,SCT220,0.00,939.00,VWS V14.01,2013-06-21 19:40:00,
2013-06-21 12:42:00,73.3,32.2,29.87,WNW,285,2.0,7.0,22,0.00,,SCT220,0.00,935.00,VWS V14.01,2013-06-21 19:42:00,
2013-06-21 12:47:00,74.4,32.0,29.87,South,186,5.0,7.0,21,0.00,,SCT220,0.00,939.00,VWS V14.01,2013-06-21 19:47:00,
2013-06-21 12:52:00,73.7,31.4,29.87,SSW,194,5.0,9.0,21,0.00,,SCT220,0.00,942.00,VWS V14.01,2013-06-21 19:52:00,
2013-06-21 12:58:00,73.8,31.5,29.87,SSW,205,4.0,9.0,21,0.00,,SCT220,0.00,942.00,VWS V14.01,2013-06-21 19:58:00,
2013-06-21 13:03:00,73.6,31.3,29.87,West,261,5.0,11.0,21,0.00,,SCT220,0.00,944.00,VWS V14.01,2013-06-21 20:03:00,
2013-06-21 13:04:00,73.8,31.5,29.87,WNW,284,7.0,11.0,21,0.00,,SCT220,0.00,944.00,VWS V14.01,2013-06-21 20:04:00,
2013-06-21 13:09:00,73.5,30.0,29.87,SSE,165,4.0,11.0,20,0.00,,SCT250,0.00,940.00,VWS V14.01,2013-06-21 20:09:00,
2013-06-21 13:11:00,73.0,30.8,29.87,WSW,242,3.0,8.0,21,0.00,,SCT250,0.00,940.00,VWS V14.01,2013-06-21 20:11:00,
2013-06-21 13:14:00,73.5,31.2,29.87,SW,229,3.0,9.0,21,0.00,,SCT250,0.00,942.00,VWS V14.01,2013-06-21 20:14:00,
2013-06-21 13:19:00,73.1,29.7,29.86,WSW,253,3.0,6.0,20,0.00,,SCT250,0.00,946.00,VWS V14.01,2013-06-21 20:19:00,
2013-06-21 13:24:00,73.2,29.8,29.86,SSE,167,1.0,8.0,20,0.00,,SCT250,0.00,937.00,VWS V14.01,2013-06-21 20:24:00,
2013-06-21 13:29:00,73.7,30.2,29.86,SW,234,3.0,5.0,20,0.00,,SCT250,0.00,937.00,VWS V14.01,2013-06-21 20:29:00,
2013-06-21 13:34:00,74.0,30.4,29.86,ENE,65,3.0,4.0,20,0.00,,SCT250,0.00,939.00,VWS V14.01,2013-06-21 20:34:00,
2013-06-21 13:39:00,74.7,25.6,29.86,NNE,16,0.0,5.0,16,0.00,,SCT250,0.00,933.00,VWS V14.01,2013-06-21 20:39:00,
2013-06-21 13:44:00,75.5,26.2,29.86,WSW,244,3.0,5.0,16,0.00,,SCT250,0.00,926.00,VWS V14.01,2013-06-21 20:44:00,
2013-06-21 13:49:00,76.1,25.1,29.86,NE,50,3.0,7.0,15,0.00,,SCT250,0.00,933.00,VWS V14.01,2013-06-21 20:49:00,
2013-06-21 13:54:00,75.2,26.0,29.86,NNE,19,3.0,6.0,16,0.00,,SCT250,0.00,932.00,VWS V14.01,2013-06-21 20:54:00,
2013-06-21 13:59:00,75.2,26.0,29.86,NNW,346,4.0,7.0,16,0.00,,SCT250,0.00,928.00,VWS V14.01,2013-06-21 20:59:00,
2013-06-21 14:04:00,75.3,24.5,29.85,NW,309,4.0,6.0,15,0.00,,SCT250,0.00,921.00,VWS V14.01,2013-06-21 21:04:00,
2013-06-21 14:09:00,74.9,25.7,29.85,NE,50,3.0,8.0,16,0.00,,SCT150,0.00,916.00,VWS V14.01,2013-06-21 21:09:00,
2013-06-21 14:14:00,75.5,24.7,29.85,NNE,31,1.0,6.0,15,0.00,,SCT150,0.00,912.00,VWS V14.01,2013-06-21 21:14:00,
2013-06-21 14:19:00,75.6,24.7,29.85,NNW,339,4.0,7.0,15,0.00,,SCT150,0.00,904.00,VWS V14.01,2013-06-21 21:19:00,
2013-06-21 14:24:00,75.5,23.0,29.85,WNW,287,4.0,10.0,14,0.00,,SCT150,0.00,902.00,VWS V14.01,2013-06-21 21:24:00,
2013-06-21 14:29:00,76.3,23.6,29.85,NNW,337,1.0,6.0,14,0.00,,SCT150,0.00,893.00,VWS V14.01,2013-06-21 21:29:00,
2013-06-21 14:34:00,76.6,23.9,29.85,NNE,24,0.0,9.0,14,0.00,,SCT150,0.00,888.00,VWS V14.01,2013-06-21 21:34:00,
2013-06-21 14:39:00,76.4,23.7,29.85,NNE,27,0.0,4.0,14,0.00,,SCT150,0.00,877.00,VWS V14.01,2013-06-21 21:39:00,
2013-06-21 14:44:00,77.1,24.3,29.84,East,100,3.0,7.0,14,0.00,,SCT150,0.00,870.00,VWS V14.01,2013-06-21 21:44:00,
2013-06-21 14:49:00,77.8,24.8,29.84,ESE,115,4.0,8.0,14,0.00,,SCT150,0.00,863.00,VWS V14.01,2013-06-21 21:49:00,
2013-06-21 14:54:00,77.8,24.8,29.84,NE,52,4.0,10.0,14,0.00,,SCT150,0.00,856.00,VWS V14.01,2013-06-21 21:54:00,
2013-06-21 14:59:00,77.2,24.4,29.84,North,10,5.0,9.0,14,0.00,,SCT150,0.00,847.00,VWS V14.01,2013-06-21 21:59:00,
2013-06-21 15:04:00,77.5,24.6,29.84,North,5,6.0,7.0,14,0.00,,SCT150,0.00,835.00,VWS V14.01,2013-06-21 22:04:00,
2013-06-21 15:09:00,77.5,24.6,29.84,NNE,21,5.0,6.0,14,0.00,,SCT150,0.00,833.00,VWS V14.01,2013-06-21 22:09:00,
2013-06-21 15:14:00,77.2,22.6,29.83,NW,322,1.0,8.0,13,0.00,,SCT150,0.00,821.00,VWS V14.01,2013-06-21 22:14:00,
2013-06-21 15:19:00,76.7,24.0,29.83,NNE,16,0.0,4.0,14,0.00,,SCT150,0.00,810.00,VWS V14.01,2013-06-21 22:19:00,
2013-06-21 15:24:00,77.3,24.4,29.83,NW,306,5.0,5.0,14,0.00,,SCT150,0.00,805.00,VWS V14.01,2013-06-21 22:24:00,
2013-06-21 15:29:00,78.0,23.2,29.83,WSW,238,0.0,10.0,13,0.00,,SCT150,0.00,795.00,VWS V14.01,2013-06-21 22:29:00,
2013-06-21 15:34:00,79.1,24.1,29.83,NNW,336,5.0,6.0,13,0.00,,SCT150,0.00,782.00,VWS V14.01,2013-06-21 22:34:00,
2013-06-21 15:39:00,79.2,24.2,29.83,NE,51,1.0,5.0,13,0.00,,SCT150,0.00,768.00,VWS V14.01,2013-06-21 22:39:00,
2013-06-21 15:44:00,77.9,23.1,29.82,NW,324,7.0,11.0,13,0.00,,SCT150,0.00,758.00,VWS V14.01,2013-06-21 22:44:00,
2013-06-21 15:49:00,76.9,22.4,29.82,NE,42,3.0,14.0,13,0.00,,SCT150,0.00,744.00,VWS V14.01,2013-06-21 22:49:00,
2013-06-21 15:54:00,77.7,23.0,29.82,NNE,24,9.0,11.0,13,0.00,,SCT150,0.00,737.00,VWS V14.01,2013-06-21 22:54:00,
2013-06-21 15:59:00,77.7,23.0,29.82,NNE,32,3.0,9.0,13,0.00,,SCT150,0.00,721.00,VWS V14.01,2013-06-21 22:59:00,
2013-06-21 16:04:00,77.8,23.1,29.82,NNE,33,3.0,9.0,13,0.00,,SCT150,0.00,710.00,VWS V14.01,2013-06-21 23:04:00,
2013-06-21 16:09:00,77.7,23.0,29.81,North,11,3.0,10.0,13,0.00,,SCT150,0.00,696.00,VWS V14.01,2013-06-21 23:09:00,
2013-06-21 16:14:00,77.5,22.8,29.81,SSW,201,3.0,10.0,13,0.00,,SCT150,0.00,687.00,VWS V14.01,2013-06-21 23:14:00,
2013-06-21 16:19:00,77.6,22.9,29.81,ENE,60,5.0,9.0,13,0.00,,SCT150,0.00,673.00,VWS V14.01,2013-06-21 23:19:00,
2013-06-21 16:24:00,78.4,21.6,29.81,ESE,119,4.0,7.0,12,0.00,,SCT150,0.00,661.00,VWS V14.01,2013-06-21 23:24:00,
2013-06-21 16:29:00,78.7,21.9,29.81,SSE,150,3.0,5.0,12,0.00,,SCT150,0.00,647.00,VWS V14.01,2013-06-21 23:29:00,
2013-06-21 16:34:00,78.4,21.6,29.81,NNE,15,2.0,12.0,12,0.00,,SCT150,0.00,635.00,VWS V14.01,2013-06-21 23:34:00,
2013-06-21 16:39:00,78.0,23.2,29.81,ESE,103,11.0,13.0,13,0.00,,SCT150,0.00,621.00,VWS V14.01,2013-06-21 23:39:00,
2013-06-21 16:44:00,77.6,21.0,29.80,ENE,71,1.0,9.0,12,0.00,,SCT150,0.00,601.00,VWS V14.01,2013-06-21 23:44:00,
2013-06-21 16:49:00,77.2,20.7,29.80,NE,40,7.0,7.0,12,0.00,,SCT150,0.00,594.00,VWS V14.01,2013-06-21 23:49:00,
2013-06-21 16:54:00,77.6,22.9,29.80,NE,49,5.0,11.0,13,0.00,,SCT150,0.00,578.00,VWS V14.01,2013-06-21 23:54:00,
2013-06-21 16:59:00,78.1,23.3,29.80,East,83,7.0,7.0,13,0.00,,SCT150,0.00,563.00,VWS V14.01,2013-06-21 23:59:00,
2013-06-21 17:04:00,78.3,21.6,29.80,NNE,28,7.0,10.0,12,0.00,,SCT150,0.00,550.00,VWS V14.01,2013-06-22 00:04:00,
2013-06-21 17:09:00,78.7,21.9,29.80,NNE,32,5.0,8.0,12,0.00,,FEW080,0.00,536.00,VWS V14.01,2013-06-22 00:09:00,
2013-06-21 17:14:00,77.7,21.1,29.80,NE,42,6.0,12.0,12,0.00,,FEW080,0.00,520.00,VWS V14.01,2013-06-22 00:14:00,
2013-06-21 17:19:00,77.7,21.1,29.80,North,5,9.0,15.0,12,0.00,,FEW080,0.00,504.00,VWS V14.01,2013-06-22 00:19:00,
2013-06-21 17:24:00,76.9,20.5,29.79,NE,36,2.0,11.0,12,0.00,,FEW080,0.00,492.00,VWS V14.01,2013-06-22 00:24:00,
2013-06-21 17:29:00,77.5,20.9,29.79,East,81,2.0,7.0,12,0.00,,FEW080,0.00,476.00,VWS V14.01,2013-06-22 00:29:00,
2013-06-21 17:34:00,78.2,21.5,29.79,ENE,60,8.0,8.0,12,0.00,,FEW080,0.00,462.00,VWS V14.01,2013-06-22 00:34:00,
2013-06-21 17:39:00,77.5,18.9,29.79,NNW,342,4.0,13.0,11,0.00,,FEW080,0.00,446.00,VWS V14.01,2013-06-22 00:39:00,
2013-06-21 17:44:00,77.6,19.0,29.78,ENE,67,5.0,9.0,11,0.00,,FEW080,0.00,429.00,VWS V14.01,2013-06-22 00:44:00,
2013-06-21 17:49:00,78.1,19.4,29.78,NNE,13,10.0,12.0,11,0.00,,FEW080,0.00,415.00,VWS V14.01,2013-06-22 00:49:00,
2013-06-21 17:54:00,78.0,19.3,29.78,NNE,23,9.0,10.0,11,0.00,,FEW080,0.00,397.00,VWS V14.01,2013-06-22 00:54:00,
2013-06-21 17:59:00,77.5,18.9,29.78,NNE,24,8.0,14.0,11,0.00,,FEW080,0.00,381.00,VWS V14.01,2013-06-22 00:59:00,
2013-06-21 18:05:00,77.4,18.8,29.78,NNE,26,5.0,13.0,11,0.00,,FEW080,0.00,369.00,VWS V14.01,2013-06-22 01:05:00,
2013-06-21 18:09:00,77.4,18.8,29.78,NNE,23,6.0,11.0,11,0.00,,FEW080,0.00,352.00,VWS V14.01,2013-06-22 01:09:00,
2013-06-21 18:14:00,77.1,18.6,29.78,NNW,342,6.0,12.0,11,0.00,,FEW080,0.00,338.00,VWS V14.01,2013-06-22 01:14:00,
2013-06-21 18:19:00,76.8,18.4,29.78,North,351,3.0,7.0,11,0.00,,FEW080,0.00,322.00,VWS V14.01,2013-06-22 01:19:00,
2013-06-21 18:24:00,76.9,18.4,29.78,North,10,6.0,9.0,11,0.00,,FEW080,0.00,306.00,VWS V14.01,2013-06-22 01:24:00,
2013-06-21 18:29:00,76.8,18.4,29.78,NE,48,3.0,6.0,11,0.00,,FEW080,0.00,290.00,VWS V14.01,2013-06-22 01:29:00,
2013-06-21 18:34:00,77.3,20.8,29.78,NE,41,2.0,10.0,12,0.00,,FEW080,0.00,272.00,VWS V14.01,2013-06-22 01:34:00,
2013-06-21 18:39:00,77.0,22.4,29.78,North,5,4.0,11.0,13,0.00,,FEW080,0.00,258.00,VWS V14.01,2013-06-22 01:39:00,
2013-06-21 18:44:00,77.1,22.5,29.78,NNW,331,8.0,11.0,13,0.00,,FEW080,0.00,244.00,VWS V14.01,2013-06-22 01:44:00,
2013-06-21 18:49:00,77.0,22.4,29.78,NE,50,4.0,11.0,13,0.00,,FEW080,0.00,227.00,VWS V14.01,2013-06-22 01:49:00,
2013-06-21 18:54:00,76.8,22.3,29.78,NNE,26,5.0,9.0,13,0.00,,FEW080,0.00,207.00,VWS V14.01,2013-06-22 01:54:00,
2013-06-21 18:59:00,76.6,22.1,29.78,North,350,10.0,13.0,13,0.00,,FEW080,0.00,192.00,VWS V14.01,2013-06-22 01:59:00,
2013-06-21 19:04:00,76.2,21.8,29.78,NNE,28,10.0,12.0,13,0.00,,FEW080,0.00,172.00,VWS V14.01,2013-06-22 02:04:00,
2013-06-21 19:09:00,75.9,23.3,29.78,NNW,330,8.0,11.0,14,0.00,,FEW080,0.00,158.00,VWS V14.01,2013-06-22 02:09:00,
2013-06-21 19:14:00,75.9,23.3,29.78,NNE,17,5.0,10.0,14,0.00,,FEW080,0.00,141.00,VWS V14.01,2013-06-22 02:14:00,
2013-06-21 19:19:00,75.8,23.2,29.78,North,5,3.0,9.0,14,0.00,,FEW080,0.00,123.00,VWS V14.01,2013-06-22 02:19:00,
2013-06-21 19:24:00,75.7,21.4,29.78,NNE,21,6.0,10.0,13,0.00,,FEW080,0.00,107.00,VWS V14.01,2013-06-22 02:24:00,
2013-06-21 19:29:00,75.4,21.2,29.78,NNE,17,5.0,12.0,13,0.00,,FEW080,0.00,91.00,VWS V14.01,2013-06-22 02:29:00,
2013-06-21 19:34:00,75.1,20.9,29.78,NNE,13,10.0,10.0,13,0.00,,FEW080,0.00,77.00,VWS V14.01,2013-06-22 02:34:00,
2013-06-21 19:39:00,74.9,20.8,29.78,North,5,6.0,12.0,13,0.00,,FEW080,0.00,65.00,VWS V14.01,2013-06-22 02:39:00,
2013-06-21 19:44:00,74.9,20.8,29.78,NNE,24,3.0,13.0,13,0.00,,FEW080,0.00,54.00,VWS V14.01,2013-06-22 02:44:00,
2013-06-21 19:49:00,74.6,20.5,29.78,NNE,25,6.0,11.0,13,0.00,,FEW080,0.00,42.00,VWS V14.01,2013-06-22 02:49:00,
2013-06-21 19:54:00,74.2,18.4,29.79,NNE,29,10.0,12.0,12,0.00,,FEW080,0.00,32.00,VWS V14.01,2013-06-22 02:54:00,
2013-06-21 19:59:00,74.1,20.2,29.79,NNE,27,9.0,11.0,13,0.00,,FEW080,0.00,21.00,VWS V14.01,2013-06-22 02:59:00,
2013-06-21 20:04:00,73.8,19.9,29.79,NW,323,8.0,11.0,13,0.00,,FEW080,0.00,14.00,VWS V14.01,2013-06-22 03:04:00,
2013-06-21 20:09:00,73.4,19.6,29.79,North,5,6.0,11.0,13,0.00,,FEW100,0.00,12.00,VWS V14.01,2013-06-22 03:09:00,
2013-06-21 20:14:00,73.2,19.5,29.79,NNW,342,7.0,14.0,13,0.00,,FEW100,0.00,9.00,VWS V14.01,2013-06-22 03:14:00,
2013-06-21 20:19:00,72.9,19.2,29.80,North,11,4.0,12.0,13,0.00,,FEW100,0.00,7.00,VWS V14.01,2013-06-22 03:19:00,
2013-06-21 20:24:00,72.7,17.2,29.80,NW,323,5.0,12.0,12,0.00,,FEW100,0.00,5.00,VWS V14.01,2013-06-22 03:24:00,
2013-06-21 20:29:00,72.4,18.8,29.80,North,355,5.0,11.0,13,0.00,,FEW100,0.00,0.00,VWS V14.01,2013-06-22 03:29:00,
2013-06-21 20:34:00,72.2,18.7,29.80,NNE,25,5.0,11.0,13,0.00,,FEW100,0.00,0.00,VWS V14.01,2013-06-22 03:34:00,
2013-06-21 20:39:00,71.9,18.4,29.80,North,5,9.0,9.0,13,0.00,,FEW100,0.00,0.00,VWS V14.01,2013-06-22 03:39:00,
2013-06-21 20:44:00,71.8,20.1,29.80,North,351,5.0,13.0,14,0.00,,FEW100,0.00,0.00,VWS V14.01,2013-06-22 03:44:00,
2013-06-21 20:49:00,71.5,21.5,29.80,NNW,334,3.0,8.0,15,0.00,,FEW100,0.00,0.00,VWS V14.01,2013-06-22 03:49:00,
2013-06-21 20:54:00,71.0,21.1,29.80,NNE,15,4.0,5.0,15,0.00,,FEW100,0.00,0.00,VWS V14.01,2013-06-22 03:54:00,
2013-06-21 20:59:00,70.6,23.7,29.80,NNW,343,1.0,6.0,17,0.00,,FEW100,0.00,0.00,VWS V14.01,2013-06-22 03:59:00,
2013-06-21 21:01:00,70.5,23.6,29.80,NNW,346,2.0,3.0,17,0.00,,FEW100,0.00,0.00,VWS V14.01,2013-06-22 04:01:00,
2013-06-21 21:06:00,70.1,23.3,29.81,North,355,1.0,4.0,17,0.00,,FEW100,0.00,0.00,VWS V14.01,2013-06-22 04:06:00,
2013-06-21 21:11:00,69.7,23.0,29.81,North,355,2.0,3.0,17,0.00,,FEW100,0.00,0.00,VWS V14.01,2013-06-22 04:11:00,
2013-06-21 21:16:00,69.2,22.6,29.81,North,5,1.0,3.0,17,0.00,,FEW100,0.00,0.00,VWS V14.01,2013-06-22 04:16:00,
2013-06-21 21:21:00,68.8,20.8,29.81,North,5,2.0,4.0,16,0.00,,FEW100,0.00,0.00,VWS V14.01,2013-06-22 04:21:00,
2013-06-21 21:26:00,68.8,17.7,29.81,NNE,21,2.0,6.0,14,0.00,,FEW100,0.00,0.00,VWS V14.01,2013-06-22 04:26:00,
2013-06-21 21:31:00,68.6,17.5,29.82,NNE,17,2.0,2.0,14,0.00,,FEW100,0.00,0.00,VWS V14.01,2013-06-22 04:31:00,
2013-06-21 21:36:00,68.3,17.3,29.82,NNE,18,1.0,2.0,14,0.00,,FEW100,0.00,0.00,VWS V14.01,2013-06-22 04:36:00,
2013-06-21 21:41:00,68.0,17.1,29.82,NNE,18,1.0,3.0,14,0.00,,FEW100,0.00,0.00,VWS V14.01,2013-06-22 04:41:00,
2013-06-21 21:46:00,67.6,18.3,29.82,NNE,18,0.0,0.0,15,0.00,,FEW100,0.00,0.00,VWS V14.01,2013-06-22 04:46:00,
2013-06-21 21:51:00,67.2,18.0,29.82,NNE,18,0.0,1.0,15,0.00,,FEW100,0.00,0.00,VWS V14.01,2013-06-22 04:51:00,
2013-06-21 21:56:00,66.7,17.6,29.83,NNE,18,0.0,1.0,15,0.00,,FEW100,0.00,0.00,VWS V14.01,2013-06-22 04:56:00,
2013-06-21 22:01:00,66.5,19.0,29.83,NNE,18,0.0,0.0,16,0.00,,FEW100,0.00,0.00,VWS V14.01,2013-06-22 05:01:00,
2013-06-21 22:06:00,66.4,17.4,29.83,NNE,18,0.0,0.0,15,0.00,,FEW100,0.00,0.00,VWS V14.01,2013-06-22 05:06:00,
2013-06-21 22:11:00,66.2,18.7,29.83,NNE,18,0.0,0.0,16,0.00,,FEW100,0.00,0.00,VWS V14.01,2013-06-22 05:11:00,
2013-06-21 22:16:00,65.9,18.5,29.83,NNE,18,1.0,1.0,16,0.00,,FEW100,0.00,0.00,VWS V14.01,2013-06-22 05:16:00,
2013-06-21 22:21:00,65.6,19.6,29.83,NNE,18,0.0,0.0,17,0.00,,FEW100,0.00,0.00,VWS V14.01,2013-06-22 05:21:00,
2013-06-21 22:26:00,65.2,19.3,29.83,NNE,18,0.0,0.0,17,0.00,,FEW100,0.00,0.00,VWS V14.01,2013-06-22 05:26:00,
2013-06-21 22:31:00,64.7,20.2,29.83,NNE,18,0.0,0.0,18,0.00,,FEW100,0.00,0.00,VWS V14.01,2013-06-22 05:31:00,
2013-06-21 22:36:00,63.4,19.2,29.83,NNE,18,0.0,0.0,18,0.00,,FEW100,0.00,0.00,VWS V14.01,2013-06-22 05:36:00,
2013-06-21 22:41:00,62.8,20.0,29.83,NNE,18,0.0,0.0,19,0.00,,FEW100,0.00,0.00,VWS V14.01,2013-06-22 05:41:00,
2013-06-21 22:46:00,62.5,20.9,29.83,NNE,18,0.0,0.0,20,0.00,,FEW100,0.00,0.00,VWS V14.01,2013-06-22 05:46:00,
2013-06-21 22:51:00,62.1,20.6,29.83,NNE,18,0.0,0.0,20,0.00,,FEW100,0.00,0.00,VWS V14.01,2013-06-22 05:51:00,
2013-06-21 22:56:00,61.4,20.0,29.83,NNE,18,0.0,0.0,20,0.00,,FEW100,0.00,0.00,VWS V14.01,2013-06-22 05:56:00,
2013-06-21 23:01:00,60.8,21.7,29.84,NNE,18,2.0,3.0,22,0.00,,FEW100,0.00,0.00,VWS V14.01,2013-06-22 06:01:00,
2013-06-21 23:06:00,60.3,20.2,29.84,WNW,296,2.0,6.0,21,0.00,,CLR,0.00,0.00,VWS V14.01,2013-06-22 06:06:00,
2013-06-21 23:11:00,60.8,20.6,29.84,NW,315,1.0,3.0,21,0.00,,CLR,0.00,0.00,VWS V14.01,2013-06-22 06:11:00,
2013-06-21 23:16:00,61.5,20.1,29.84,NW,317,0.0,2.0,20,0.00,,CLR,0.00,0.00,VWS V14.01,2013-06-22 06:16:00,
2013-06-21 23:21:00,61.8,19.1,29.84,NW,317,1.0,3.0,19,0.00,,CLR,0.00,0.00,VWS V14.01,2013-06-22 06:21:00,
2013-06-21 23:26:00,62.0,20.5,29.84,NW,317,0.0,1.0,20,0.00,,CLR,0.00,0.00,VWS V14.01,2013-06-22 06:26:00,
2013-06-21 23:31:00,62.0,19.3,29.85,NW,317,1.0,2.0,19,0.00,,CLR,0.00,0.00,VWS V14.01,2013-06-22 06:31:00,
2013-06-21 23:36:00,61.7,19.0,29.84,NW,320,3.0,3.0,19,0.00,,CLR,0.00,0.00,VWS V14.01,2013-06-22 06:36:00,
2013-06-21 23:41:00,61.6,20.2,29.85,NW,323,0.0,2.0,20,0.00,,CLR,0.00,0.00,VWS V14.01,2013-06-22 06:41:00,
2013-06-21 23:46:00,61.3,19.9,29.85,NW,323,1.0,2.0,20,0.00,,CLR,0.00,0.00,VWS V14.01,2013-06-22 06:46:00,
2013-06-21 23:51:00,61.1,20.9,29.85,NNW,328,1.0,4.0,21,0.00,,CLR,0.00,0.00,VWS V14.01,2013-06-22 06:51:00,
2013-06-21 23:56:00,61.0,21.9,29.85,NNW,328,2.0,2.0,22,0.00,,CLR,0.00,0.00,VWS V14.01,2013-06-22 06:56:00,